Copco Lake Weather Center

Moon Phase Calendar



Copco Lake Water Level
Online Cameras

 


      

Current Conditions in Montague
11/30/2021 4:17:51 AM

34°F
Feels Like 30
Clear
Humidity
59%
Pressure
30.33"
Wind
4.5 mph (ESE)
Dew Point
23°F
UV Index
0/10 (Low)
Visibility
6 mi

Hourly Forecast

Date & Time Tue, Nov 30
4:00 AM
Tue, Nov 30
5:00 AM
Tue, Nov 30
6:00 AM
Tue, Nov 30
7:00 AM
Tue, Nov 30
8:00 AM
Tue, Nov 30
9:00 AM
Tue, Nov 30
10:00 AM
Tue, Nov 30
11:00 AM
Tue, Nov 30
12:00 PM
Tue, Nov 30
1:00 PM
Tue, Nov 30
2:00 PM
Tue, Nov 30
3:00 PM
Tue, Nov 30
4:00 PM
Tue, Nov 30
5:00 PM
Tue, Nov 30
6:00 PM
Tue, Nov 30
7:00 PM
Tue, Nov 30
8:00 PM
Tue, Nov 30
9:00 PM
Tue, Nov 30
10:00 PM
Tue, Nov 30
11:00 PM
Wed, Dec 1
12:00 AM
Wed, Dec 1
1:00 AM
Wed, Dec 1
2:00 AM
Wed, Dec 1
3:00 AM
Wed, Dec 1
4:00 AM
Wed, Dec 1
5:00 AM
Wed, Dec 1
6:00 AM
Wed, Dec 1
7:00 AM
Wed, Dec 1
8:00 AM
Wed, Dec 1
9:00 AM
Wed, Dec 1
10:00 AM
Wed, Dec 1
11:00 AM
Wed, Dec 1
12:00 PM
Wed, Dec 1
1:00 PM
Wed, Dec 1
2:00 PM
Wed, Dec 1
3:00 PM
Wed, Dec 1
4:00 PM
Wed, Dec 1
5:00 PM
Wed, Dec 1
6:00 PM
Wed, Dec 1
7:00 PM
Wed, Dec 1
8:00 PM
Wed, Dec 1
9:00 PM
Wed, Dec 1
10:00 PM
Wed, Dec 1
11:00 PM
Thu, Dec 2
12:00 AM
Thu, Dec 2
1:00 AM
Thu, Dec 2
2:00 AM
Thu, Dec 2
3:00 AM
Condition
Clear

Clouds

Clouds

Clouds

Clouds

Clouds

Clouds

Clear

Clouds

Clouds

Clouds

Clouds

Clouds

Clouds

Clouds

Clouds

Clouds

Clouds

Clouds

Clear

Clear

Clear

Clouds

Clouds

Clouds

Clouds

Clouds

Clouds

Clouds

Clouds

Clouds

Clouds

Clouds

Clouds

Clouds

Clouds

Clouds

Clear

Clear

Clear

Clear

Clear

Clear

Clear

Clear

Clear

Clear

Clear
Temperature 34°F36°F38°F39°F42°F50°F55°F59°F62°F63°F64°F62°F56°F53°F51°F50°F50°F50°F49°F49°F49°F48°F48°F48°F47°F47°F47°F46°F48°F53°F59°F63°F66°F67°F68°F66°F60°F55°F53°F52°F52°F52°F51°F51°F50°F50°F49°F49°F
Feels Like 30°F33°F34°F36°F40°F47°F52°F57°F59°F61°F61°F60°F54°F50°F49°F48°F49°F48°F48°F47°F47°F46°F46°F45°F45°F45°F44°F44°F45°F51°F56°F61°F64°F65°F66°F64°F58°F53°F51°F50°F50°F49°F49°F48°F48°F50°F49°F49°F
Cloudiness 4%21%34%44%62%75%69%5%31%53%45%42%49%97%66%48%38%31%27%7%9%10%11%11%14%93%52%40%53%62%54%16%42%52%42%35%30%5%3%2%1%1%1%0%0%0%0%0%
Visibility 6 mi6 mi6 mi6 mi6 mi6 mi6 mi6 mi6 mi6 mi6 mi6 mi6 mi6 mi6 mi6 mi6 mi6 mi6 mi6 mi6 mi6 mi6 mi6 mi6 mi6 mi6 mi6 mi6 mi6 mi6 mi6 mi6 mi6 mi6 mi6 mi6 mi6 mi6 mi6 mi6 mi6 mi6 mi6 mi6 mi6 mi6 mi6 mi
Precipitation 0%0%0%0%0%0%0%0%0%0%0%0%0%0%0%0%0%0%0%0%0%0%0%0%0%0%0%0%0%0%0%0%0%0%0%0%0%0%0%0%0%0%0%0%0%0%0%0%
Humidity 59%58%59%59%56%48%40%35%32%31%31%37%47%51%53%54%54%54%54%55%56%58%60%61%62%62%63%64%63%54%43%38%36%35%36%41%52%59%62%63%63%64%65%66%67%68%68%69%
Dew Point 23°F24°F25°F27°F28°F28°F28°F29°F29°F29°F30°F33°F33°F32°F32°F31°F31°F30°F30°F30°F30°F31°F31°F32°F32°F32°F31°F32°F32°F34°F34°F34°F35°F36°F37°F39°F39°F37°F37°F37°F36°F36°F36°F36°F36°F36°F36°F36°F
Pressure 30.33"30.33"30.33"30.36"30.36"30.33"30.33"30.3"30.27"30.24"30.24"30.24"30.24"30.3"30.3"30.33"30.33"30.36"30.36"30.36"30.36"30.36"30.36"30.33"30.33"30.33"30.33"30.33"30.33"30.3"30.27"30.24"30.18"30.15"30.12"30.09"30.12"30.15"30.15"30.18"30.18"30.18"30.18"30.18"30.18"30.18"30.15"30.15"
Wind Speed 4.5 mph3.4 mph4.1 mph4.2 mph3.9 mph1.9 mph0.6 mph1.2 mph1.2 mph0.8 mph1.5 mph0.8 mph0.9 mph3 mph3.9 mph4.4 mph4.2 mph4.6 mph4.7 mph4.9 mph4.8 mph4.9 mph5.3 mph5.5 mph5.4 mph5.5 mph5.6 mph5.7 mph5.5 mph4.3 mph4 mph3.5 mph3 mph2.7 mph2.7 mph2 mph3 mph4.2 mph4.1 mph4 mph3.4 mph3.3 mph2.8 mph3 mph2.6 mph2.9 mph3 mph2.9 mph
Wind
Direction
107°
ESE
110°
ESE
90°
E
68°
ENE
89°
E
121°
ESE
41°
NE
31°
NNE
335°
NNW
299°
WNW
274°
W
248°
WSW
66°
ENE
64°
ENE
80°
E
77°
ENE
82°
E
85°
E
83°
E
86°
E
91°
E
88°
E
83°
E
78°
ENE
87°
E
88°
E
83°
E
88°
E
87°
E
97°
E
86°
E
84°
E
80°
E
79°
E
74°
ENE
71°
ENE
81°
E
85°
E
85°
E
86°
E
81°
E
96°
E
95°
E
95°
E
91°
E
90°
E
94°
E
96°
E

Daily Forecast

Date High Low Precip. Humidity
Today
Nov 30

Clear
64 °F
34 °F
0%
35%
Wednesday
Dec 1

Clouds
68 °F
46 °F
0%
38%
Thursday
Dec 2

Clear
64 °F
47 °F
0%
52%
Friday
Dec 3

Clear
62 °F
45 °F
0%
59%
Saturday
Dec 4

Clouds
60 °F
42 °F
0%
59%
Sunday
Dec 5

Clouds
58 °F
42 °F
0%
37%
Monday
Dec 6

Rain
48 °F
44 °F
100%
93%
Tuesday
Dec 7

Snow
46 °F
36 °F
44%
63%
Wednesday
Dec 8

Rain
53 °F
36 °F
57%
48%
Thursday
Dec 9

Snow
48 °F
32 °F
100%
90%
Friday
Dec 10

Snow
34 °F
24 °F
72%
71%
Saturday
Dec 11

Snow
36 °F
25 °F
40%
80%
Sunday
Dec 12

Snow
38 °F
26 °F
86%
77%
Monday
Dec 13

Snow
42 °F
26 °F
66%
79%
Tuesday
Dec 14

Snow
42 °F
26 °F
48%
77%
Wednesday
Dec 15

Snow
36 °F
31 °F
100%
99%

Temperature 8-14 Day Outlook



Precipitation 8-14 Day Outlook




Quick Links
Copco Lake News
Copco Lake Photos
Copco Lake Videos




About Us
Contact Us
Site Map
Search Site
Advertise With Us
   
Copco.LakesOnline.com
THE COPCO LAKE WEBSITE

Copyright 2021, Lakes Online
Privacy    |    Legal